Regional Weather Roundup
Issued by NWS Newport/Morehead, NC

Current Version | Previous Version | Text Only | Print | Product List | Glossary On
Versions: 1 2 3 4 5 6 7 8 9 10 11 12 13 14 15 16 17 18 19 20 21 22 23 24 25 26 27 28 29 30 31 32 33 34 35 36 37 38 39 40 41 42 43 44 45 46 47 48 49 50
000
ASUS42 KMHX 271010
RWRMHX
WEATHER ROUNDUP FOR EASTERN NORTH CAROLINA
NATIONAL WEATHER SERVICE NEWPORT/MOREHEAD CITY NC
500 AM EST THU NOV 27 2014

NOTE: "FAIR" INDICATES FEW OR NO CLOUDS BELOW 12,000 FEET
WITH NO SIGNIFICANT WEATHER AND/OR OBSTRUCTIONS TO VISIBILITY

NCZ015>017-031-032-045>047-102-103-271100-
NORTH COAST

CITY           SKY/WX    TMP DP  RH WIND       PRES   REMARKS
EDENTON        MOCLDY    40  38  91 SW5       30.07F
ELIZABETH CITY CLOUDY    41  36  82 SW3       30.06F
KITTY HAWK     MOSUNNY   38  37  95 SW3       30.07R
MANTEO         MOCLDY    40  37  89 W3        30.08S

$$

NCZ045>047-081-094-103-104-271100-
CENTRAL COAST

CITY           SKY/WX    TMP DP  RH WIND       PRES   REMARKS
FRISCO         MOCLDY    41  39  93 W5        30.08F
SWANQUARTER      N/A     39 N/A N/A NE1       30.06S

$$

NCZ095-097-098-100-101-271100-
SOUTHERN COAST

CITY           SKY/WX    TMP DP  RH WIND       PRES   REMARKS
BEAUFORT       MOCLDY    40  39  97 CALM      30.08F
CEDAR ISLAND     N/A     39 N/A N/A SE2       30.12S
JACKSONVILLE   CLEAR     39  37  92 S5        30.07F
PINEY ISLAND   PTSUNNY   42  38  85 CALM      30.08S
WILMINGTON     CLEAR     36  36 100 CALM      30.05F FOG


$$

NCZ011>013-027>030-043-044-078>080-089-090>093-098-271100-
COASTAL PLAIN

CITY           SKY/WX    TMP DP  RH WIND       PRES   REMARKS
AHOSKIE        MOCLDY    37  36  96 CALM      30.06F
CLINTON        PTCLDY    39  39 100 E3        30.05F
ELIZABETHTOWN  FOG       40  40 100 SE3       30.04F VSB 1
GOLDSBORO      CLOUDY    39  39  98 CALM      30.04F
GREENVILLE     CLOUDY    37  37 100 S3        30.08F
HAVELOCK       MOCLDY    38  36  92 CALM      30.09F
KENANSVILLE    MOCLDY    37  37 100 CALM      30.06F
KINSTON        MOCLDY    37  37 100 SE3       30.07F
NEW BERN       PTCLDY    38  35  89 CALM      30.09F
RICHLANDS      CLEAR     36  34  93 CALM      30.07F
ROCKY MOUNT    MOCLDY    38  36  92 CALM      30.05F
WASHINGTON     CLOUDY    38  37  95 CALM      30.07F
WHITEVILLE     MOCLDY    42  40  93 S3        30.04F

$$

AMZ130-135-150-152-154-156-158-170-250-252-270-ANZ085-086-088-633-658-670-271100-
MARINE OBSERVATIONS

STATION/POSITION TIME  TEMP    WIND        PRES    WAVE   SWELL
                       AIR SEA DIR/SP/G            HT/PER HT/PER
                 (UTC) (F)     (DEG/KT/KT) (MB)    (FT/S) (FT/S)
CHESAPEAKE LIGHT 0900   44     310/ 15/ 17 1018.0
64 E VA BEACH    1000   47 61  300/ 12/ 16 1016.6    9/10   8/10
DUCK             1000   42 54  280/  5/  7 1017.3
2 E DUCK         1000      56                N/A     5/10   2/11
10 NE DUCK       1000      58                N/A     6/ 9   2/11
OREGON INLET     1000   42 56  280/  4/  6 1018.1
13E OREGON INLT  1000      61                N/A     8/ 9   2/11
HATTERAS CG      1000   43 60  320/  5/  7 1018.8
DIAMOND BUOY     1000   47     300/ 10/ 16 1018.6    7/ 8   7/ 8
17 S OCRACOKE    NOT AVBL
CAPE LOOKOUT     0900   45     230/  1/  2 1018.7
BEAUFORT LAB     1000   43 57  360/  1/  2 1017.6
30 SE NEW RIVER  1000   52 65  170/  4/  6 1018.9    3/ 8   3/ 8
5 SE WRIGHTSVLE  0900   48 59  200/  4/  6 1018.4
225 S CAPE HAT   0852   66 73  300/ 17/ 21 1019.4   10/ 8   7/ 8
41 SE CHARLESTON 1000   61 74  250/ 17/ 21 1018.4    4/ 5   2/ 9

$$



USA.gov is the U.S. government's official web portal to all federal, state and local government web resources and services.